Orbital Elements at Epoch 2459200.5 (2020-Dec-17.0) TDB
Reference: JPL 17 (heliocentric ecliptic J2000)
Element | Value | Uncertainty (1-sigma) | Units |
e | .08430792253657615 | 1.8655e-07 | |
a | 2.54534705830859 | 1.7826e-08 | au |
q | 2.330754135688008 | 4.8337e-07 | au |
i | 3.23612627601552 | 8.2363e-06 | deg |
node | 333.0140859652086 | 0.00010769 | deg |
peri | 233.5058379616543 | 0.00015727 | deg |
M | 85.83788482560995 | 0.00013793 | deg |
tp | 2458846.832262833230 (2019-Dec-29.33226283) | 0.00056614 | TDB |
period | 1483.265642422388 4.06 | 1.5582e-05 4.266e-08 | d yr |
n | .2427077050150422 | 2.5497e-09 | deg/d |
Q | 2.759939980929173 | 1.9329e-08 | au |
|
| | Orbit Determination Parameters
Additional Information
|